T7ZEM RKPD-RJCN

Flight info

Callsign T7ZEM
Flight time N/A
Altitude 29000
Route AKPON1M AKPON Y571 PSN Y579 TENAS L512 KAMSA Z171 NOMAS Z17 MRE V13 TIKYU Y13 SIRAO V13 CHE V5 TCE
Aircraft TBM8/L-SDFGRWY/S

Departure

Time N/A
Airport Jeongseok Airport (RKPD)

Arrival

Time 2026-04-20 19:27
Airport Nakashibetsu Airport (RJCN)
Time Latitude Longitude Altitude Speed Heading
2026-04-20 19:08 43.07814 144.86201 18146 ft 333 kts 91°
2026-04-20 19:09 43.08029 144.89336 17475 ft 331 kts 88°
2026-04-20 19:09 43.08769 144.92330 16808 ft 336 kts 66°
2026-04-20 19:09 43.10176 144.94880 16161 ft 337 kts 45°
2026-04-20 19:09 43.12092 144.96686 15517 ft 333 kts 25°
2026-04-20 19:10 43.14278 144.97572 14902 ft 325 kts
2026-04-20 19:10 43.16495 144.97498 14352 ft 314 kts 344°
2026-04-20 19:10 43.18488 144.96597 13880 ft 299 kts 326°
2026-04-20 19:10 43.20155 144.95026 13367 ft 284 kts 308°
2026-04-20 19:11 43.21466 144.93070 12842 ft 277 kts 301°
2026-04-20 19:11 43.22747 144.91106 12324 ft 276 kts 302°
2026-04-20 19:11 43.24034 144.89165 11817 ft 274 kts 302°
2026-04-20 19:11 43.25305 144.87224 11307 ft 273 kts 301°
2026-04-20 19:12 43.26566 144.85286 10814 ft 272 kts 301°
2026-04-20 19:12 43.27824 144.83362 10329 ft 270 kts 301°
2026-04-20 19:12 43.29060 144.81475 9858 ft 269 kts 301°
2026-04-20 19:12 43.30303 144.79565 9337 ft 268 kts 301°
2026-04-20 19:13 43.31543 144.77670 8837 ft 266 kts 300°
2026-04-20 19:13 43.32773 144.75786 8327 ft 265 kts 300°
2026-04-20 19:13 43.33995 144.73905 7826 ft 263 kts 300°
2026-04-20 19:13 43.35215 144.72022 7464 ft 263 kts 300°
2026-04-20 19:14 43.36428 144.70155 7215 ft 260 kts 300°
2026-04-20 19:14 43.37632 144.68313 6969 ft 258 kts 300°
2026-04-20 19:14 43.38822 144.66488 6728 ft 256 kts 299°
2026-04-20 19:14 43.40001 144.64668 6488 ft 254 kts 299°
2026-04-20 19:15 43.41257 144.62943 6231 ft 264 kts 314°
2026-04-20 19:15 43.42998 144.62013 5933 ft 281 kts 345°
2026-04-20 19:15 43.44955 144.62199 5655 ft 286 kts 18°
2026-04-20 19:15 43.46633 144.63548 5393 ft 276 kts 50°
2026-04-20 19:16 43.47671 144.65635 5129 ft 256 kts 78°
2026-04-20 19:16 43.48011 144.67919 4905 ft 236 kts 97°
2026-04-20 19:16 43.48093 144.69382 4902 ft 229 kts 97°
2026-04-20 19:16 43.48284 144.72247 4900 ft 221 kts 97°
2026-04-20 19:17 43.48371 144.73631 4898 ft 219 kts 98°
2026-04-20 19:17 43.48536 144.76379 4894 ft 216 kts 98°
2026-04-20 19:17 43.48663 144.78440 4902 ft 216 kts 98°
2026-04-20 19:17 43.48789 144.80492 4904 ft 214 kts 98°
2026-04-20 19:18 43.48915 144.82533 4907 ft 214 kts 97°
2026-04-20 19:18 43.49042 144.84580 4908 ft 215 kts 98°
2026-04-20 19:18 43.49168 144.86632 4892 ft 215 kts 97°
2026-04-20 19:18 43.49252 144.87994 4904 ft 216 kts 96°
2026-04-20 19:19 43.49379 144.90059 4905 ft 217 kts 96°
2026-04-20 19:19 43.49505 144.92133 4904 ft 217 kts 96°
2026-04-20 19:19 43.49631 144.94210 4905 ft 218 kts 96°
2026-04-20 19:19 43.49799 144.96967 4907 ft 218 kts 96°
2026-04-20 19:20 43.49925 144.99052 4871 ft 220 kts 96°
2026-04-20 19:20 43.50044 145.01230 4371 ft 235 kts 96°
2026-04-20 19:20 43.50131 145.02760 4026 ft 240 kts 95°
2026-04-20 19:20 43.50557 145.05020 3528 ft 253 kts 79°
2026-04-20 19:21 43.51181 145.07287 3024 ft 252 kts 79°
2026-04-20 19:21 43.51752 145.09554 2510 ft 249 kts 80°
2026-04-20 19:21 43.52296 145.11799 1982 ft 244 kts 79°
2026-04-20 19:21 43.53030 145.14676 1287 ft 238 kts 71°
2026-04-20 19:22 43.53651 145.15921 1209 ft 229 kts 50°
2026-04-20 19:22 43.54918 145.17138 1206 ft 220 kts 25°
2026-04-20 19:22 43.56390 145.17593 1207 ft 217 kts
2026-04-20 19:22 43.57838 145.17258 1206 ft 213 kts 338°
2026-04-20 19:23 43.59232 145.16577 1208 ft 212 kts 339°
2026-04-20 19:23 43.60561 145.15735 1209 ft 207 kts 314°
2026-04-20 19:23 43.61389 145.14234 1211 ft 190 kts 288°
2026-04-20 19:23 43.61681 145.12540 1205 ft 177 kts 263°
2026-04-20 19:24 43.61459 145.10917 1213 ft 169 kts 244°
2026-04-20 19:24 43.61060 145.09390 1211 ft 169 kts 245°
2026-04-20 19:24 43.60687 145.07851 1211 ft 169 kts 245°
2026-04-20 19:24 43.60316 145.06347 1222 ft 164 kts 245°
2026-04-20 19:25 43.59957 145.04889 1223 ft 162 kts 244°
2026-04-20 19:25 43.59589 145.03427 1192 ft 162 kts 244°
2026-04-20 19:25 43.59219 145.01950 980 ft 160 kts 245°
2026-04-20 19:25 43.58875 145.00530 758 ft 152 kts 246°
2026-04-20 19:26 43.58588 144.99290 568 ft 122 kts 244°
2026-04-20 19:26 43.58329 144.98322 477 ft 98 kts 247°
2026-04-20 19:26 43.58115 144.97441 335 ft 98 kts 245°
2026-04-20 19:26 43.57908 144.96602 223 ft 77 kts 245°
2026-04-20 19:27 43.57763 144.96055 221 ft 50 kts 252°
2026-04-20 19:27 43.57653 144.95622 221 ft 43 kts 253°
2026-04-20 19:27 43.57518 144.95507 222 ft 24 kts 163°
2026-04-20 19:27 43.57402 144.95508 223 ft 13 kts 177°
2026-04-20 19:28 43.57388 144.95537 223 ft 0 kts 71°